TimeCDT,TemperatureF,Dew PointF,Humidity,Sea Level PressureIn,VisibilityMPH,Wind Direction,Wind SpeedMPH,Gust SpeedMPH,PrecipitationIn,Events,Conditions,WindDirDegrees,DateUTC
12:53 AM,34.0,30.9,89,30.00,10.0,West,5.8,-,N/A,,Clear,270,2013-10-17 05:53:00
1:53 AM,34.0,30.0,85,30.00,10.0,West,8.1,-,N/A,,Clear,280,2013-10-17 06:53:00
2:53 AM,32.0,28.9,88,30.00,10.0,West,5.8,-,N/A,,Clear,260,2013-10-17 07:53:00
3:53 AM,33.1,28.9,85,29.99,10.0,WSW,12.7,-,N/A,,Clear,250,2013-10-17 08:53:00
4:53 AM,34.0,28.0,79,29.99,10.0,West,9.2,-,N/A,,Clear,270,2013-10-17 09:53:00
5:53 AM,33.1,27.0,78,30.00,10.0,WSW,5.8,-,N/A,,Clear,240,2013-10-17 10:53:00
6:53 AM,32.0,27.0,82,30.03,10.0,WNW,11.5,-,N/A,,Clear,290,2013-10-17 11:53:00
7:53 AM,32.0,27.0,82,30.05,9.0,NW,9.2,-,N/A,,Clear,310,2013-10-17 12:53:00
8:53 AM,36.0,28.9,76,30.07,9.0,West,8.1,-,N/A,,Clear,280,2013-10-17 13:53:00
9:53 AM,42.1,32.0,67,30.09,9.0,NW,11.5,-,N/A,,Clear,310,2013-10-17 14:53:00
10:53 AM,46.0,34.0,63,30.11,10.0,NW,18.4,23.0,N/A,,Clear,320,2013-10-17 15:53:00
11:53 AM,48.9,33.1,54,30.11,10.0,NNW,19.6,-,N/A,,Clear,340,2013-10-17 16:53:00
12:53 PM,54.0,33.1,45,30.11,10.0,NNW,21.9,-,N/A,,Clear,340,2013-10-17 17:53:00
1:53 PM,55.0,30.9,40,30.08,10.0,NW,17.3,23.0,N/A,,Clear,310,2013-10-17 18:53:00
2:53 PM,55.9,32.0,40,30.07,10.0,NNW,21.9,26.5,N/A,,Clear,340,2013-10-17 19:53:00
3:53 PM,55.0,30.9,40,30.06,10.0,NNW,19.6,-,N/A,,Clear,330,2013-10-17 20:53:00
4:53 PM,52.0,30.9,45,30.07,10.0,North,16.1,21.9,N/A,,Partly Cloudy,350,2013-10-17 21:53:00
5:53 PM,52.0,30.0,43,30.08,10.0,North,11.5,-,N/A,,Clear,350,2013-10-17 22:53:00
6:53 PM,48.0,30.9,52,30.10,10.0,North,10.4,-,N/A,,Clear,360,2013-10-17 23:53:00
7:53 PM,44.1,30.9,60,30.13,10.0,Calm,Calm,-,N/A,,Clear,0,2013-10-18 00:53:00
8:53 PM,41.0,30.0,65,30.15,10.0,NNE,9.2,-,N/A,,Scattered Clouds,20,2013-10-18 01:53:00
9:53 PM,39.0,30.0,70,30.16,10.0,NNE,6.9,-,N/A,,Overcast,20,2013-10-18 02:53:00
10:53 PM,39.9,30.0,68,30.16,10.0,NNE,5.8,-,N/A,,Overcast,30,2013-10-18 03:53:00
11:53 PM,39.9,28.9,65,30.15,10.0,ENE,8.1,-,N/A,,Overcast,70,2013-10-18 04:53:00